BEIDOU-3 M14

Last updated on Oct. 24, 2020, 5:54 a.m. UTC

1 43623U 18072B   20297.39062282  .00000035  00000-0  00000-0 0  9996
2 43623  55.1845 131.6009 0003257 335.9273 356.5688  1.86231940 14232
UTC
Height (km)
Latitude
Longitude
Inclination
Orbital Period
UTC large
Height (km)
Speed (km/s)
/
Latitude / Longitude
Inclination (degrees)
Orbital Period (minutes)
Azimuth
Elevation
Range (km)
Doppler Factor
iOS Compass Heading
iOS Angle

Next 30 passes for location: Hong Kong

Rise time Rise Azimuth (degrees) Set time Set Azimuth (degrees) Duration Max altitude (degrees)

No matching passes for this satellites